Location: Montreal
(45.5000°N, 73.5833°W)
Time: 02:38:19
(UTC-04:00)

Envisat - Pass Details

Date: 13 October 2017
Orbit: 764 x 766 km, 98.2° (Epoch: 20 October)

Event Time Altitude Azimuth Distance (km) Brightness Sun altitude
Exits shadow 19:16:46 17° 85° (E) 1,882 4.4 -12.1°
Maximum altitude 19:18:26 19° 61° (ENE) 1,744 4.4 -12.4°
Drops below altitude 10° 19:21:58 10° 16° (NNE) 2,312 5.3 -13.1°
Sets 19:24:51 0° 360° (N) 3,243 6.3 -13.6°
